Location: Bouchavesnes-Bergen
(49.9859°N, 2.9203°E)
Time: 02:51:13
(UTC+00:00)

Envisat - Pass Details

Date: 08 February 2023
Orbit: 763 x 765 km, 98.2° (Epoch: 30 March)

Event Time Altitude Azimuth Distance (km) Brightness Sun altitude
Rises 04:14:04 0° 13° (NNE) 3,246 6.5 -28.8°
Reaches altitude 10° 04:16:23 10° 12° (NNE) 2,315 5.7 -28.5°
Enters shadow 04:20:09 50° 3° (N) 974 3.5 -27.9°
